GW4807 Weather Reports


Display with metric or nautical units.
time (UTC)temp
F
wind
direction
speed
MPH
gust
MPH
rain 1hr
in
rain 24hr
in
rain mn
in
humidity
%
barometer
mb
20260905150854 89 161 1.0 1.0 0.00 0.00 0.00 61 1010.2
20260905150349 89 165 3.0 5.0 0.00 0.00 0.00 62 1010.0
20260905145846 89 237 2.0 2.0 0.00 0.00 0.00 62 1010.2
20260905145340 88 157 1.0 1.0 0.00 0.00 0.00 63 1009.9
20260905144834 87 143 1.0 1.0 0.00 0.00 0.00 64 1010.0
20260905144330 87 157 3.0 3.0 0.00 0.00 0.00 66 1009.9
20260905143828 86 143 1.0 2.0 0.00 0.00 0.00 67 1009.8
20260905143322 86 145 0.0 1.0 0.00 0.00 0.00 68 1010.0
20260905142821 86 123 0.0 1.0 0.00 0.00 0.00 69 1009.9
20260905142316 84 116 0.0 0.0 0.00 0.00 0.00 72 1010.0
20260905141812 84 94 1.0 1.0 0.00 0.00 0.00 72 1010.1
20260905141307 83 87 1.0 2.0 0.00 0.00 0.00 73 1010.1
20260905140802 83 108 2.0 2.0 0.00 0.00 0.00 74 1010.0
20260905140302 82 129 0.0 0.0 0.00 0.00 0.00 74 1010.2
20260905135800 82 127 0.0 0.0 0.00 0.00 0.00 75 1010.2
20260905135257 82 147 1.0 2.0 0.00 0.00 0.00 75 1010.3
20260905134757 82 131 0.0 1.0 0.00 0.00 0.00 75 1010.1
20260905134250 82 144 1.0 1.0 0.00 0.00 0.00 74 1010.0
20260905133745 82 133 1.0 1.0 0.00 0.00 0.00 74 1010.1
20260905133240 81 134 1.0 1.0 0.00 0.00 0.00 77 1009.9
20260905132739 80 142 1.0 2.0 0.00 0.00 0.00 77 1009.8
20260905132230 80 121 0.0 0.0 0.00 0.00 0.00 79 1009.9
20260905131724 80 119 1.0 1.0 0.00 0.00 0.00 79 1009.9
20260905131220 78 121 0.0 0.0 0.00 0.00 0.00 83 1009.7
20260905130720 77 122 0.0 0.0 0.00 0.00 0.00 87 1009.8
20260905130219 74 121 0.0 0.0 0.00 0.00 0.00 93 1009.8
20260905125714 72 125 0.0 0.0 0.00 0.00 0.00 95 1009.7
20260905125209 71 124 0.0 0.0 0.00 0.00 0.00 97 1010.0
20260905124706 71 120 0.0 0.0 0.00 0.00 0.00 99 1009.7
20260905124201 69 121 0.0 0.0 0.00 0.00 0.00 99 1009.8
20260905123656 69 126 0.0 0.0 0.00 0.00 0.00 99 1009.6
20260905123154 68 128 0.0 1.0 0.00 0.00 0.00 99 1009.7
20260905122653 68 124 0.0 0.0 0.00 0.00 0.00 99 1009.7
20260905122148 68 124 0.0 0.0 0.00 0.00 0.00 99 1009.6
20260905121642 68 123 0.0 0.0 0.00 0.00 0.00 99 1009.5
20260905121138 68 125 0.0 0.0 0.00 0.00 0.00 99 1009.3
20260905120637 68 125 0.0 0.0 0.00 0.00 0.00 99 1009.6
20260905120132 67 125 0.0 0.0 0.00 0.00 0.00 99 1009.5
20260905115631 67 123 0.0 0.0 0.00 0.00 0.00 99 1009.4
20260905115126 67 123 0.0 0.0 0.00 0.00 0.00 99 1009.4
20260905114626 68 123 0.0 0.0 0.00 0.00 0.00 99 1009.5
20260905114125 68 123 0.0 0.0 0.00 0.00 0.00 99 1009.3
20260905113620 68 123 0.0 0.0 0.00 0.00 0.00 99 1009.5
20260905113115 68 123 0.0 0.0 0.00 0.00 0.00 99 1009.4
20260905112609 68 123 0.0 0.0 0.00 0.00 0.00 99 1009.3
20260905112105 68 123 0.0 0.0 0.00 0.00 0.00 99 1009.4
20260905111600 68 123 0.0 0.0 0.00 0.00 0.00 99 1009.3
20260905111059 68 123 0.0 0.0 0.00 0.00 0.00 99 1009.3
20260905110558 68 123 0.0 0.0 0.00 0.00 0.00 99 1009.6
20260905110054 68 124 0.0 0.0 0.00 0.00 0.00 99 1009.5
20260905105548 68 125 0.0 0.0 0.00 0.00 0.00 99 1009.4
20260905105047 68 125 0.0 0.0 0.00 0.00 0.00 99 1009.5
20260905104543 68 125 0.0 0.0 0.00 0.00 0.00 99 1009.5
20260905104043 68 125 0.0 0.0 0.00 0.00 0.00 99 1009.5
20260905103533 68 125 0.0 0.0 0.00 0.00 0.00 99 1009.4
20260905103029 68 125 0.0 0.0 0.00 0.00 0.00 99 1009.3
20260905102524 68 125 0.0 0.0 0.00 0.00 0.00 99 1009.3
20260905102021 68 125 0.0 0.0 0.00 0.00 0.00 99 1009.3
20260905101519 68 125 0.0 0.0 0.00 0.00 0.00 99 1009.2
20260905101017 68 125 0.0 0.0 0.00 0.00 0.00 99 1009.4
20260905100514 68 125 0.0 0.0 0.00 0.00 0.00 99 1009.4
20260905100013 68 125 0.0 0.0 0.00 0.00 0.00 99 1009.5
20260905095508 68 125 0.0 0.0 0.00 0.00 0.00 99 1009.4
20260905095002 68 125 0.0 0.0 0.00 0.00 0.00 99 1009.1
20260905094458 68 125 0.0 0.0 0.00 0.00 0.00 99 1009.4
20260905093957 69 125 0.0 0.0 0.00 0.00 0.00 98 1009.3
20260905093452 69 125 0.0 0.0 0.00 0.00 0.00 98 1009.4
20260905092948 69 124 0.0 0.0 0.00 0.00 0.00 98 1009.3
20260905092443 69 123 0.0 0.0 0.00 0.00 0.00 98 1009.2
20260905091938 69 123 0.0 0.0 0.00 0.00 0.00 98 1009.1
20260905091432 69 125 0.0 0.0 0.00 0.00 0.00 98 1009.1
20260905090931 69 125 0.0 0.0 0.00 0.00 0.00 97 1009.2
20260905090427 69 125 0.0 0.0 0.00 0.00 0.00 97 1009.2
20260905085926 69 125 0.0 0.0 0.00 0.00 0.00 97 1009.3
20260905085420 69 125 0.0 0.0 0.00 0.00 0.00 97 1009.2
20260905084917 69 125 0.0 0.0 0.00 0.00 0.00 97 1009.1
20260905084416 69 125 0.0 0.0 0.00 0.00 0.00 97 1008.9
20260905083911 69 125 0.0 0.0 0.00 0.00 0.00 97 1008.9
20260905083406 69 124 0.0 0.0 0.00 0.00 0.00 96 1008.9
20260905082902 69 124 0.0 0.0 0.00 0.00 0.00 96 1008.8
20260905082357 69 125 0.0 0.0 0.00 0.00 0.00 96 1009.0
20260905081852 70 125 0.0 0.0 0.00 0.00 0.00 96 1008.9
20260905081347 70 125 0.0 0.0 0.00 0.00 0.00 96 1009.0
20260905080846 70 124 0.0 0.0 0.00 0.00 0.00 95 1008.8
20260905080341 70 124 0.0 0.0 0.00 0.00 0.00 95 1009.0
20260905075839 70 123 0.0 0.0 0.00 0.00 0.00 95 1009.0
20260905075333 70 123 0.0 0.0 0.00 0.00 0.00 95 1009.2
20260905074833 70 123 0.0 0.0 0.00 0.00 0.00 94 1009.1
20260905074329 70 123 0.0 0.0 0.00 0.00 0.00 94 1008.9
20260905073824 70 123 0.0 0.0 0.00 0.00 0.00 94 1009.0
20260905073319 71 123 0.0 0.0 0.00 0.00 0.00 94 1009.3
20260905072814 71 123 0.0 0.0 0.00 0.00 0.00 94 1009.1
20260905072309 71 124 0.0 0.0 0.00 0.00 0.00 94 1009.3
20260905071805 71 123 0.0 0.0 0.00 0.00 0.00 93 1009.1
20260905071256 71 124 0.0 0.0 0.00 0.00 0.00 93 1009.1
20260905070750 71 125 0.0 0.0 0.00 0.00 0.00 93 1009.2
20260905070247 71 125 0.0 0.0 0.00 0.00 0.00 93 1009.3
20260905065745 71 125 0.0 0.0 0.00 0.00 0.00 92 1009.3
20260905065238 71 125 0.0 0.0 0.00 0.00 0.00 92 1009.2
20260905064733 71 125 0.0 0.0 0.00 0.00 0.00 92 1009.3
20260905064229 71 124 0.0 0.0 0.00 0.00 0.00 92 1009.4
20260905063728 72 124 0.0 0.0 0.00 0.00 0.00 91 1009.5
20260905063224 72 124 0.0 0.0 0.00 0.00 0.00 91 1009.4
20260905062720 72 124 0.0 0.0 0.00 0.00 0.00 91 1009.4
20260905062219 72 124 0.0 0.0 0.00 0.00 0.00 91 1009.2
20260905061713 72 125 0.0 0.0 0.00 0.00 0.00 91 1009.4
20260905061208 72 125 0.0 0.0 0.00 0.00 0.00 90 1009.3
20260905060703 72 125 0.0 0.0 0.00 0.00 0.00 90 1009.3
20260905060200 72 123 0.0 0.0 0.00 0.00 0.00 90 1009.6
20260905055658 72 125 0.0 0.0 0.00 0.00 0.00 89 1009.3
20260905055153 73 125 0.0 0.0 0.00 0.00 0.00 89 1009.3
20260905054649 73 125 0.0 0.0 0.00 0.00 0.00 89 1009.4
20260905054144 73 125 0.0 0.0 0.00 0.00 0.00 89 1009.3
20260905053644 73 125 0.0 0.0 0.00 0.00 0.00 88 1009.5
20260905053139 73 125 0.0 0.0 0.00 0.00 0.00 88 1009.3
20260905052639 73 125 0.0 0.0 0.00 0.00 0.00 87 1009.2
20260905052133 74 125 0.0 0.0 0.00 0.00 0.00 86 1009.3
20260905051629 74 123 0.0 0.0 0.00 0.00 0.00 86 1009.2
20260905051125 74 125 0.0 0.0 0.00 0.00 0.00 86 1009.3
20260905050621 74 128 0.0 0.0 0.00 0.00 0.00 86 1009.0
20260905050113 74 125 0.0 0.0 0.00 0.00 0.00 86 1009.3
20260905045612 74 125 0.0 0.0 0.00 0.00 0.00 86 1009.3
20260905045108 74 125 0.0 0.0 0.00 0.00 0.00 85 1009.0
20260905044607 74 125 0.0 0.0 0.00 0.00 0.00 85 1009.3
20260905044102 74 125 0.0 0.0 0.00 0.00 0.00 84 1009.2
20260905043600 74 125 0.0 0.0 0.00 0.00 0.00 84 1009.5
20260905043056 74 126 0.0 0.0 0.00 0.00 0.00 84 1009.4
20260905042554 74 125 0.0 0.0 0.00 0.00 0.00 84 1009.4
20260905042050 75 125 0.0 0.0 0.00 0.00 0.00 83 1009.5
20260905041546 75 125 0.0 0.0 0.00 0.00 0.00 82 1009.4
20260905041041 75 125 0.0 0.0 0.00 0.00 0.00 82 1009.4
20260905040535 75 126 0.0 0.0 0.00 0.00 0.00 82 1009.4
20260905040034 75 130 0.0 0.0 0.00 0.00 0.00 82 1009.4
20260905035529 75 130 0.0 0.0 0.00 0.00 0.00 82 1009.3
20260905035026 75 126 0.0 0.0 0.00 0.00 0.00 81 1009.3
20260905034521 76 125 0.0 0.0 0.00 0.00 0.00 80 1009.4
20260905034021 76 126 0.0 0.0 0.00 0.00 0.00 80 1009.4
20260905033515 76 126 0.0 0.0 0.00 0.00 0.00 79 1009.3
20260905033011 76 126 0.0 0.0 0.00 0.00 0.00 79 1009.3
20260905032506 76 126 0.0 0.0 0.00 0.00 0.00 78 1009.2
20260905032000 77 126 0.0 0.0 0.00 0.00 0.00 78 1009.1
20260905031456 77 126 0.0 0.0 0.00 0.00 0.00 78 1009.2
20260905030951 77 126 0.0 0.0 0.00 0.00 0.00 77 1009.3
20260905030447 77 128 0.0 0.0 0.00 0.00 0.00 77 1009.3
20260905025945 77 132 0.0 0.0 0.00 0.00 0.00 77 1009.3
20260905025441 77 126 0.0 0.0 0.00 0.00 0.00 76 1009.2
20260905024937 77 126 0.0 0.0 0.00 0.00 0.00 76 1009.0
20260905024437 78 126 0.0 0.0 0.00 0.00 0.00 76 1008.9
20260905023932 78 126 0.0 0.0 0.00 0.00 0.00 76 1008.7
20260905023427 78 126 0.0 0.0 0.00 0.00 0.00 76 1008.8
20260905022926 78 126 0.0 0.0 0.00 0.00 0.00 75 1008.6
20260905022422 78 126 0.0 0.0 0.00 0.00 0.00 74 1008.7
20260905021917 78 126 0.0 0.0 0.00 0.00 0.00 73 1008.5
20260905021412 79 128 0.0 0.0 0.00 0.00 0.00 73 1008.7
20260905020907 79 131 0.0 0.0 0.00 0.00 0.00 73 1008.2
20260905020406 79 125 0.0 0.0 0.00 0.00 0.00 72 1008.2
20260905015906 79 126 0.0 0.0 0.00 0.00 0.00 72 1008.2
20260905015404 80 126 0.0 0.0 0.00 0.00 0.00 71 1008.4
20260905014859 80 126 0.0 0.0 0.00 0.00 0.00 70 1008.0
20260905014354 80 128 0.0 0.0 0.00 0.00 0.00 69 1008.0
20260905013849 80 128 0.0 0.0 0.00 0.00 0.00 69 1007.9
20260905013346 81 128 0.0 0.0 0.00 0.00 0.00 68 1007.9
20260905012845 81 128 0.0 0.0 0.00 0.00 0.00 68 1007.9
20260905012341 81 128 0.0 0.0 0.00 0.00 0.00 67 1007.6
20260905011838 82 128 0.0 0.0 0.00 0.00 0.00 67 1007.6
20260905011333 82 128 0.0 0.0 0.00 0.00 0.00 66 1007.7
20260905010829 82 128 0.0 0.0 0.00 0.00 0.00 65 1007.7
20260905010323 83 129 0.0 0.0 0.00 0.00 0.00 65 1007.6
20260905005820 83 128 0.0 0.0 0.00 0.00 0.00 64 1007.6
20260905005316 84 129 0.0 0.0 0.00 0.00 0.00 64 1007.3
20260905004816 84 129 0.0 0.0 0.00 0.00 0.00 63 1007.5
20260905004310 85 132 0.0 1.0 0.00 0.00 0.00 62 1007.4
20260905003806 86 130 0.0 0.0 0.00 0.00 0.00 61 1007.3
20260905003302 86 132 0.0 0.0 0.00 0.00 0.00 60 1007.3
20260905002757 87 132 0.0 0.0 0.00 0.00 0.00 59 1007.5
20260905002257 87 134 0.0 1.0 0.00 0.00 0.00 58 1007.4
20260905001752 88 134 0.0 0.0 0.00 0.00 0.00 57 1007.5
20260905001251 89 135 0.0 1.0 0.00 0.00 0.00 56 1007.7
20260905000746 90 132 0.0 0.0 0.00 0.00 0.00 54 1007.6
20260905000243 92 132 0.0 0.0 0.00 0.00 0.00 52 1007.4
20260904235738 93 138 1.0 1.0 0.00 0.00 0.00 49 1007.4
20260904235232 94 131 0.0 0.0 0.00 0.00 0.00 47 1007.5
20260904234726 96 113 1.0 1.0 0.00 0.00 0.00 45 1007.6
20260904234222 97 116 1.0 1.0 0.00 0.00 0.00 43 1007.5
20260904233718 98 124 0.0 0.0 0.00 0.00 0.00 41 1007.3
20260904233214 99 59 1.0 1.0 0.00 0.00 0.00 41 1007.4
20260904232710 100 113 1.0 1.0 0.00 0.00 0.00 40 1007.4
20260904232206 101 165 1.0 1.0 0.00 0.00 0.00 38 1007.6
20260904231701 101 128 0.0 0.0 0.00 0.00 0.00 38 1007.3
20260904231157 100 133 0.0 1.0 0.00 0.00 0.00 39 1007.6
20260904230656 100 158 3.0 3.0 0.00 0.00 0.00 40 1007.6
20260904230151 100 83 1.0 1.0 0.00 0.00 0.00 39 1007.6
20260904225649 99 129 1.0 1.0 0.00 0.00 0.00 41 1007.5
20260904225144 100 113 1.0 2.0 0.00 0.00 0.00 40 1007.9
20260904224638 100 103 1.0 1.0 0.00 0.00 0.00 40 1007.6
20260904224133 100 133 0.0 0.0 0.00 0.00 0.00 40 1007.6
20260904223632 100 61 2.0 2.0 0.00 0.00 0.00 41 1007.6
20260904223128 99 124 1.0 2.0 0.00 0.00 0.00 42 1007.7
20260904222624 98 88 2.0 2.0 0.00 0.00 0.00 42 1007.7
20260904222120 98 125 1.0 1.0 0.00 0.00 0.00 42 1007.8
20260904221619 99 100 3.0 3.0 0.00 0.00 0.00 42 1007.7
20260904221119 100 92 2.0 2.0 0.00 0.00 0.00 41 1007.8
20260904220614 100 117 0.0 1.0 0.00 0.00 0.00 40 1007.7
20260904220109 100 36 5.0 7.0 0.00 0.00 0.00 40 1007.6
20260904215603 101 125 1.0 1.0 0.00 0.00 0.00 40 1007.7
20260904215059 100 190 0.0 2.0 0.00 0.00 0.00 41 1007.8
20260904214554 100 143 1.0 1.0 0.00 0.00 0.00 40 1007.8
20260904214050 100 128 1.0 1.0 0.00 0.00 0.00 41 1007.6
20260904213548 99 60 2.0 2.0 0.00 0.00 0.00 42 1007.9
20260904213045 100 118 1.0 1.0 0.00 0.00 0.00 41 1007.9
20260904212544 102 65 1.0 2.0 0.00 0.00 0.00 40 1007.9
20260904212039 103 127 1.0 2.0 0.00 0.00 0.00 37 1008.1
20260904211534 104 184 2.0 3.0 0.00 0.00 0.00 37 1008.1
20260904211029 101 138 0.0 1.0 0.00 0.00 0.00 39 1008.1
20260904210529 101 80 1.0 2.0 0.00 0.00 0.00 40 1008.1
20260904210025 100 114 3.0 6.0 0.00 0.00 0.00 40 1008.2
20260904205520 101 80 1.0 1.0 0.00 0.00 0.00 39 1008.0
20260904205017 102 161 2.0 3.0 0.00 0.00 0.00 38 1008.4
20260904204512 102 107 1.0 1.0 0.00 0.00 0.00 37 1008.2
20260904204009 103 243 2.0 2.0 0.00 0.00 0.00 37 1008.2
20260904203504 104 229 3.0 3.0 0.00 0.00 0.00 38 1008.2
20260904203000 101 102 2.0 2.0 0.00 0.00 0.00 38 1008.4
20260904202456 101 64 3.0 3.0 0.00 0.00 0.00 39 1008.4
20260904201951 102 92 1.0 1.0 0.00 0.00 0.00 39 1008.6
20260904201446 103 116 1.0 1.0 0.00 0.00 0.00 39 1008.6
20260904200942 102 66 2.0 3.0 0.00 0.00 0.00 39 1008.7
20260904200440 102 171 2.0 2.0 0.00 0.00 0.00 39 1008.8
20260904195935 100 102 1.0 2.0 0.00 0.00 0.00 41 1009.0
20260904195433 101 153 1.0 1.0 0.00 0.00 0.00 41 1008.9
20260904194927 102 118 0.0 0.0 0.00 0.00 0.00 41 1009.0
20260904194427 101 138 0.0 0.0 0.00 0.00 0.00 41 1009.3
20260904193922 101 125 1.0 1.0 0.00 0.00 0.00 40 1009.2
20260904193418 101 160 2.0 2.0 0.00 0.00 0.00 41 1009.1
20260904192913 100 76 2.0 3.0 0.00 0.00 0.00 41 1009.4
20260904192408 98 167 1.0 1.0 0.00 0.00 0.00 43 1009.3
20260904191904 98 133 0.0 1.0 0.00 0.00 0.00 44 1009.4
20260904191401 100 120 2.0 2.0 0.00 0.00 0.00 42 1009.3
20260904190857 100 315 4.0 5.0 0.00 0.00 0.00 42 1009.5
20260904190352 99 140 1.0 1.0 0.00 0.00 0.00 43 1009.6
20260904185849 99 144 1.0 2.0 0.00 0.00 0.00 43 1009.8
20260904185344 98 104 1.0 1.0 0.00 0.00 0.00 44 1009.8
20260904184843 98 141 1.0 1.0 0.00 0.00 0.00 44 1009.9
20260904184339 100 149 1.0 1.0 0.00 0.00 0.00 43 1009.6
20260904183834 99 182 1.0 2.0 0.00 0.00 0.00 42 1009.9
20260904183329 98 219 2.0 3.0 0.00 0.00 0.00 43 1009.9
20260904182825 98 125 3.0 3.0 0.00 0.00 0.00 43 1009.9
20260904182324 98 131 2.0 3.0 0.00 0.00 0.00 44 1009.9
20260904181820 97 175 1.0 2.0 0.00 0.00 0.00 46 1009.9
20260904181321 96 52 2.0 2.0 0.00 0.00 0.00 47 1010.3
20260904180816 96 133 0.0 0.0 0.00 0.00 0.00 47 1010.2
20260904180311 96 88 0.0 1.0 0.00 0.00 0.00 46 1010.1
20260904175810 96 112 1.0 1.0 0.00 0.00 0.00 46 1010.3
20260904175309 95 168 2.0 2.0 0.00 0.00 0.00 47 1010.3
20260904174808 95 135 1.0 2.0 0.00 0.00 0.00 47 1010.4
20260904174305 96 91 2.0 2.0 0.00 0.00 0.00 46 1010.5
20260904173800 96 311 4.0 5.0 0.00 0.00 0.00 48 1010.5
20260904173255 96 131 1.0 2.0 0.00 0.00 0.00 47 1010.8
20260904172752 96 125 1.0 2.0 0.00 0.00 0.00 47 1010.6
20260904172250 96 105 3.0 5.0 0.00 0.00 0.00 48 1010.3
20260904171745 96 124 1.0 1.0 0.00 0.00 0.00 49 1010.7
20260904171241 95 102 2.0 2.0 0.00 0.00 0.00 49 1010.7
20260904170737 94 138 1.0 2.0 0.00 0.00 0.00 49 1010.8
20260904170233 94 121 4.0 5.0 0.00 0.00 0.00 51 1010.9
20260904165732 95 185 4.0 5.0 0.00 0.00 0.00 51 1010.8
20260904165226 94 331 2.0 2.0 0.00 0.00 0.00 51 1010.7
20260904164720 93 78 2.0 2.0 0.00 0.00 0.00 53 1010.9
20260904164215 93 154 1.0 2.0 0.00 0.00 0.00 52 1011.1
20260904163712 94 150 2.0 2.0 0.00 0.00 0.00 51 1011.0
20260904163207 93 113 3.0 6.0 0.00 0.00 0.00 52 1011.0
20260904162706 94 130 0.0 0.0 0.00 0.00 0.00 52 1010.9
20260904162200 93 131 1.0 1.0 0.00 0.00 0.00 53 1010.9
20260904161656 92 131 1.0 1.0 0.00 0.00 0.00 55 1010.9
20260904161151 92 158 0.0 1.0 0.00 0.00 0.00 55 1011.0
20260904160647 92 165 1.0 1.0 0.00 0.00 0.00 55 1010.9
20260904160142 92 123 0.0 1.0 0.00 0.00 0.00 56 1010.8
20260904155637 92 193 4.0 5.0 0.00 0.00 0.00 56 1010.8
20260904155131 92 194 2.0 5.0 0.00 0.00 0.00 56 1010.8
20260904154630 91 170 2.0 2.0 0.00 0.00 0.00 57 1010.9
20260904154125 90 142 1.0 1.0 0.00 0.00 0.00 59 1011.1
20260904153620 90 150 2.0 3.0 0.00 0.00 0.00 59 1011.1
20260904153115 90 97 2.0 2.0 0.00 0.00 0.00 61 1011.1
20260904152612 89 134 0.0 0.0 0.00 0.00 0.00 63 1011.1
20260904152107 89 173 3.0 3.0 0.00 0.00 0.00 63 1011.3
20260904151602 89 160 3.0 3.0 0.00 0.00 0.00 64 1011.0
20260904151101 89 154 2.0 2.0 0.00 0.00 0.00 66 1011.2